CDT,Max TemperatureF,Mean TemperatureF,Min TemperatureF,Max Dew PointF,MeanDew PointF,Min DewpointF,Max Humidity, Mean Humidity, Min Humidity, Max Sea Level PressureIn, Mean Sea Level PressureIn, Min Sea Level PressureIn, Max VisibilityMiles, Mean VisibilityMiles, Min VisibilityMiles, Max Wind SpeedMPH, Mean Wind SpeedMPH, Max Gust SpeedMPH,PrecipitationIn, CloudCover, Events, WindDirDegrees
2012-10-1,67,56,43,47,43,39,90,65,37,29.93,29.87,29.82,10,10,7,8,4,,0.00,0,,76
2012-10-2,72,54,37,47,41,36,95,62,29,29.90,29.86,29.82,10,10,2,12,3,18,0.00,0,,28
2012-10-3,71,58,46,52,48,42,92,70,50,30.03,29.95,29.90,10,10,10,8,2,,0.00,3,,133
2012-10-4,70,56,41,55,48,40,96,85,48,30.19,30.09,30.03,10,10,2,18,8,26,0.00,3,Rain-Thunderstorm,235
2012-10-5,45,40,34,41,36,32,97,81,61,30.23,30.19,30.15,10,10,10,18,6,24,0.00,5,Rain-Thunderstorm,290
2012-10-6,44,36,28,32,29,25,88,72,55,30.24,30.21,30.16,10,10,10,14,7,21,0.00,4,,294
2012-10-7,50,41,33,32,27,21,87,62,32,30.24,30.19,30.14,10,10,10,12,5,18,0.00,4,,269
2012-10-8,59,46,32,34,30,26,87,59,33,30.14,30.06,29.98,10,10,10,25,9,30,0.00,0,,190
2012-10-9,66,54,40,43,39,34,94,67,39,30.00,29.93,29.83,10,10,5,23,11,29,0.00,3,Rain,222
2012-10-10,55,43,32,38,31,26,95,69,36,30.21,30.14,30.00,10,10,10,18,9,29,0.00,1,,277
2012-10-11,68,52,35,42,35,30,83,58,32,30.26,30.14,30.06,10,10,10,18,9,24,0.31,1,,203
2012-10-12,58,46,36,36,30,25,70,52,31,30.43,30.32,30.20,10,10,7,17,10,23,0.00,2,,78
2012-10-13,68,58,49,64,54,39,97,86,66,30.20,29.94,29.74,10,7,2,20,9,31,0.35,7,Rain-Thunderstorm,173
2012-10-14,67,55,43,62,54,41,97,90,72,29.89,29.68,29.51,10,9,2,30,12,43,0.65,7,Rain,238
2012-10-15,62,50,37,46,42,37,100,79,45,29.99,29.94,29.89,10,8,0,10,4,,0.00,0,Fog,277
2012-10-16,76,60,45,53,46,40,85,63,38,29.93,29.68,29.51,10,10,10,20,8,30,0.00,1,,162
2012-10-17,64,55,47,57,50,41,95,76,56,29.54,29.46,29.35,10,9,3,26,11,32,0.70,4,Rain-Thunderstorm,206
2012-10-18,50,46,41,41,38,32,93,78,52,29.48,29.45,29.42,10,10,7,24,12,30,0.06,6,Rain,226
2012-10-19,53,48,43,46,43,40,99,87,66,29.71,29.55,29.41,10,9,3,18,10,28,0.08,8,Rain,272
2012-10-20,55,48,40,45,42,39,100,83,59,29.91,29.84,29.72,10,9,2,10,6,,0.05,5,,263
2012-10-21,71,56,41,54,47,39,96,75,51,29.95,29.92,29.88,10,9,5,9,6,,0.00,0,,125
2012-10-22,67,63,59,63,61,54,98,90,82,29.92,29.88,29.85,10,9,3,13,6,16,0.15,6,Rain-Thunderstorm,148
2012-10-23,73,68,62,63,62,60,96,85,70,29.91,29.87,29.82,10,9,4,14,7,17,0.01,5,Rain,166
2012-10-24,79,70,60,65,61,57,91,77,58,29.91,29.86,29.79,10,10,10,18,8,23,0.00,2,,168
2012-10-25,73,56,39,63,52,32,92,82,69,30.17,29.84,29.68,10,10,3,26,15,36,0.30,5,Rain-Thunderstorm,229
2012-10-26,48,38,30,32,29,27,93,69,45,30.37,30.32,30.19,10,10,10,20,13,28,0.00,1,,329
2012-10-27,45,35,25,29,26,23,93,73,47,30.38,30.32,30.27,10,10,10,13,7,17,0.00,0,,353
2012-10-28,51,38,25,32,27,21,88,72,41,30.31,30.29,30.25,10,10,10,15,7,18,0.00,2,,12
2012-10-29,51,37,23,33,25,21,93,67,30,30.35,30.27,30.15,10,10,10,13,5,21,0.00,0,,6
2012-10-30,52,40,28,28,23,15,84,56,23,30.15,29.98,29.88,10,10,10,24,9,31,0.00,0,,322
2012-10-31,50,38,25,28,22,16,88,62,26,29.95,29.93,29.90,10,10,10,18,9,24,0.00,0,,304